,,,PA_Meas_PMT16A,,PR_Meas_QMR101_102,,RH_Meas_QMH101,,SR_Meas_QMS101,,TA_Meas_QMH101,,GenWind,,GenWind,
date,time,status,PA,status,PR,status,RH,status,SR,status,TA,status,DirAvg,status,SpdAvg,
2008-07-28, 06:49:04,VALID,1004.49,VALID,0,VALID,96.1392,VALID,63.053,VALID,23.9371,VALID,25,VALID,0.627344,
2008-07-28, 06:50:04,VALID,1004.48,VALID,0,VALID,96.1849,VALID,68.6845,VALID,24.0557,VALID,35,VALID,0.563281,
2008-07-28, 06:51:04,VALID,1004.5,VALID,0,VALID,96.1849,VALID,75.7239,VALID,24.1142,VALID,28,VALID,0.378516,
2008-07-28, 06:52:04,VALID,1004.51,VALID,0,VALID,96.1697,VALID,84.7746,VALID,24.192,VALID,63,VALID,0.373047,
2008-07-28, 06:53:04,VALID,1004.49,VALID,0,VALID,96.1239,VALID,95.6354,VALID,24.2486,VALID,96,VALID,0.535156,
2008-07-28, 06:54:04,VALID,1004.5,VALID,0,VALID,96.101,VALID,107.502,VALID,24.3673,VALID,80,VALID,0.155859,
2008-07-28, 06:55:04,VALID,1004.48,VALID,0,VALID,96.0476,VALID,119.368,VALID,24.4238,VALID,19,VALID,0.286719,
2008-07-28, 06:56:04,VALID,1004.49,VALID,0,VALID,95.9332,VALID,131.536,VALID,24.4841,VALID,54,VALID,0.665234,
2008-07-28, 06:57:04,VALID,1004.49,VALID,0,VALID,95.8569,VALID,145.012,VALID,24.6009,VALID,63,VALID,0.401953,
2008-07-28, 06:58:04,VALID,1004.53,VALID,0,VALID,95.7348,VALID,158.99,VALID,24.6788,VALID,44,VALID,0.489453,
2008-07-28, 06:59:04,VALID,1004.56,VALID,0,VALID,95.5365,VALID,170.655,VALID,24.7761,VALID,31,VALID,0.350391,
2008-07-28, 07:00:04,VALID,1004.59,VALID,0,VALID,95.4144,VALID,180.41,VALID,24.854,VALID,64,VALID,0.541016,
2008-07-28, 07:01:04,VALID,1004.63,VALID,0,VALID,94.8804,VALID,192.377,VALID,24.893,VALID,26,VALID,1.38086,
2008-07-28, 07:02:04,VALID,1004.67,VALID,0,VALID,94.7507,VALID,199.316,VALID,24.9904,VALID,29,VALID,0.648438,
2008-07-28, 07:03:04,VALID,1004.69,VALID,0,VALID,94.1328,VALID,203.841,VALID,25.0274,VALID,24,VALID,1.93047,
2008-07-28, 07:04:04,VALID,1004.72,VALID,0,VALID,93.0266,VALID,207.662,VALID,25.0293,VALID,93,VALID,1.93945,
2008-07-28, 07:05:04,VALID,1004.72,VALID,0,VALID,93.3317,VALID,212.791,VALID,25.1267,VALID,54,VALID,0.580859,
2008-07-28, 07:06:04,VALID,1004.75,VALID,0,VALID,93.2859,VALID,216.713,VALID,25.2046,VALID,32,VALID,0.694922,
2008-07-28, 07:07:04,VALID,1004.76,VALID,0,VALID,93.0647,VALID,220.535,VALID,25.2825,VALID,47,VALID,0.763672,
2008-07-28, 07:08:04,VALID,1004.78,VALID,0,VALID,91.9814,VALID,220.233,VALID,25.2825,VALID,25,VALID,1.25977,
2008-07-28, 07:09:04,VALID,1004.74,VALID,0,VALID,92.0882,VALID,222.546,VALID,25.3604,VALID,45,VALID,1.00508,
2008-07-28, 07:10:04,VALID,1004.76,VALID,0,VALID,91.5771,VALID,231.295,VALID,25.3779,VALID,18,VALID,1.13945,
2008-07-28, 07:11:04,VALID,1004.76,VALID,0,VALID,91.5161,VALID,239.239,VALID,25.4383,VALID,84,VALID,0.948438,
2008-07-28, 07:12:04,VALID,1004.77,VALID,0,VALID,90.3717,VALID,244.267,VALID,25.4792,VALID,26,VALID,1.57773,
2008-07-28, 07:13:04,VALID,1004.82,VALID,0,VALID,90.0666,VALID,244.066,VALID,25.5162,VALID,25,VALID,1.72656,
2008-07-28, 07:14:04,VALID,1004.84,VALID,0,VALID,90.8066,VALID,243.865,VALID,25.6155,VALID,67,VALID,0.563672,
2008-07-28, 07:15:04,VALID,1004.87,VALID,0,VALID,90.2497,VALID,245.876,VALID,25.6739,VALID,78,VALID,0.942969,
2008-07-28, 07:16:04,VALID,1004.84,VALID,0,VALID,89.7004,VALID,245.675,VALID,25.6739,VALID,97,VALID,1.10156,
2008-07-28, 07:17:04,VALID,1004.8,VALID,0,VALID,89.1969,VALID,245.675,VALID,25.6525,VALID,95,VALID,1.4332,
2008-07-28, 07:18:04,VALID,1004.76,VALID,0,VALID,89.8453,VALID,248.793,VALID,25.7109,VALID,67,VALID,0.595312,
2008-07-28, 07:19:04,VALID,1004.73,VALID,0,VALID,89.853,VALID,252.212,VALID,25.7499,VALID,108,VALID,0.935938,
2008-07-28, 07:20:04,VALID,1004.75,VALID,0,VALID,89.7843,VALID,251.81,VALID,25.7869,VALID,98,VALID,0.989844,
2008-07-28, 07:21:04,VALID,1004.79,VALID,0,VALID,89.3723,VALID,253.519,VALID,25.8259,VALID,97,VALID,1.02266,
2008-07-28, 07:22:04,VALID,1004.78,VALID,0,VALID,90.181,VALID,258.849,VALID,25.9252,VALID,97,VALID,0.763672,
2008-07-28, 07:23:04,VALID,1004.82,VALID,0,VALID,89.4791,VALID,263.173,VALID,26.0012,VALID,97,VALID,1.08711,
2008-07-28, 07:24:04,VALID,1004.83,VALID,0,VALID,89.4257,VALID,265.184,VALID,26.1395,VALID,94,VALID,0.884766,
2008-07-28, 07:25:04,VALID,1004.87,VALID,0,VALID,89.3113,VALID,268.805,VALID,26.2389,VALID,61,VALID,0.823828,
2008-07-28, 07:26:04,VALID,1004.87,VALID,0,VALID,88.0602,VALID,271.922,VALID,26.2564,VALID,84,VALID,1.15664,
2008-07-28, 07:27:04,VALID,1004.82,VALID,0,VALID,88.3577,VALID,274.939,VALID,26.2973,VALID,41,VALID,0.921094,
2008-07-28, 07:28:04,VALID,1004.81,VALID,0,VALID,87.9534,VALID,278.962,VALID,26.3558,VALID,37,VALID,0.782422,
2008-07-28, 07:29:04,VALID,1004.79,VALID,0,VALID,88.2738,VALID,280.872,VALID,26.5116,VALID,53,VALID,0.783203,
2008-07-28, 07:30:04,VALID,1004.81,VALID,0,VALID,87.3659,VALID,283.889,VALID,26.5701,VALID,84,VALID,0.738281,
2008-07-28, 07:31:04,VALID,1004.79,VALID,0,VALID,86.4276,VALID,289.32,VALID,26.5661,VALID,46,VALID,1.10078,
2008-07-28, 07:32:04,VALID,1004.8,VALID,0,VALID,86.687,VALID,294.046,VALID,26.6655,VALID,80,VALID,0.616016,
2008-07-28, 07:33:04,VALID,1004.84,VALID,0,VALID,85.9317,VALID,299.175,VALID,26.726,VALID,83,VALID,1.24492,
2008-07-28, 07:34:04,VALID,1004.83,VALID,0,VALID,84.9476,VALID,304.203,VALID,26.6635,VALID,79,VALID,1.40352,
2008-07-28, 07:35:04,VALID,1004.87,VALID,0,VALID,86.0919,VALID,304.706,VALID,26.7239,VALID,110,VALID,1.06211,
2008-07-28, 07:36:04,VALID,1004.84,VALID,0,VALID,85.8173,VALID,285.297,VALID,26.7434,VALID,102,VALID,0.889844,
2008-07-28, 07:37:04,VALID,1004.84,VALID,0,VALID,85.6571,VALID,306.114,VALID,26.8019,VALID,80,VALID,0.480078,
2008-07-28, 07:38:04,VALID,1004.82,VALID,0,VALID,86.3055,VALID,317.98,VALID,26.8798,VALID,98,VALID,1.06719,
2008-07-28, 07:39:04,VALID,1004.78,VALID,0,VALID,85.0849,VALID,323.109,VALID,26.9013,VALID,101,VALID,1.17656,
2008-07-28, 07:40:04,VALID,1004.81,VALID,0,VALID,85.4435,VALID,324.818,VALID,26.9598,VALID,95,VALID,0.544531,
2008-07-28, 07:41:04,VALID,1004.83,VALID,0,VALID,84.6348,VALID,319.589,VALID,26.9793,VALID,82,VALID,0.9125,
2008-07-28, 07:42:04,VALID,1004.82,VALID,0,VALID,83.4142,VALID,325.12,VALID,27.0552,VALID,100,VALID,1.34922,
2008-07-28, 07:43:04,VALID,1004.86,VALID,0,VALID,84.5433,VALID,316.472,VALID,27.0552,VALID,97,VALID,0.894922,
2008-07-28, 07:44:04,VALID,1004.85,VALID,0,VALID,84.7721,VALID,278.559,VALID,27.1157,VALID,58,VALID,0.571094,
2008-07-28, 07:45:04,VALID,1004.87,VALID,0,VALID,84.9247,VALID,282.079,VALID,27.2306,VALID,47,VALID,0.582812,
2008-07-28, 07:46:04,VALID,1004.87,VALID,0,VALID,84.7645,VALID,280.973,VALID,27.369,VALID,67,VALID,0.316016,
2008-07-28, 07:47:04,VALID,1004.87,VALID,0,VALID,84.3373,VALID,295.856,VALID,27.4665,VALID,92,VALID,0.582422,
2008-07-28, 07:48:04,VALID,1004.89,VALID,0,VALID,84.5356,VALID,295.253,VALID,27.4839,VALID,117,VALID,0.530078,
2008-07-28, 07:49:04,VALID,1004.89,VALID,0,VALID,83.4142,VALID,277.252,VALID,27.4839,VALID,103,VALID,0.8,
2008-07-28, 07:50:04,VALID,1004.88,VALID,0,VALID,81.156,VALID,341.21,VALID,27.5034,VALID,87,VALID,0.756641,
2008-07-28, 07:51:04,VALID,1004.87,VALID,0,VALID,82.6589,VALID,349.557,VALID,27.5055,VALID,79,VALID,0.516406,
2008-07-28, 07:52:04,VALID,1004.89,VALID,0,VALID,82.3385,VALID,312.851,VALID,27.6029,VALID,69,VALID,0.392578,
2008-07-28, 07:53:04,VALID,1004.91,VALID,0,VALID,82.247,VALID,333.467,VALID,27.6029,VALID,108,VALID,1.29961,
2008-07-28, 07:54:04,VALID,1004.93,VALID,0,VALID,80.7517,VALID,347.747,VALID,27.5034,VALID,130,VALID,1.28516,
2008-07-28, 07:55:04,VALID,1004.94,VALID,0,VALID,81.1179,VALID,358.205,VALID,27.5229,VALID,103,VALID,1.4332,
2008-07-28, 07:56:04,VALID,1004.95,VALID,0,VALID,82.2927,VALID,356.295,VALID,27.4254,VALID,112,VALID,0.709766,
2008-07-28, 07:57:04,VALID,1004.98,VALID,0,VALID,81.8503,VALID,338.495,VALID,27.4449,VALID,97,VALID,0.777734,
2008-07-28, 07:58:04,VALID,1004.99,VALID,0,VALID,81.6672,VALID,322.103,VALID,27.525,VALID,104,VALID,1.17813,
2008-07-28, 07:59:04,VALID,1005.01,VALID,0,VALID,81.2476,VALID,298.672,VALID,27.4644,VALID,102,VALID,1.18438,
2008-07-28, 08:00:04,VALID,1005.02,VALID,0,VALID,82.1554,VALID,311.846,VALID,27.4254,VALID,95,VALID,1.16094,
2008-07-28, 08:01:04,VALID,1005.05,VALID,0,VALID,81.835,VALID,330.349,VALID,27.447,VALID,82,VALID,0.750391,
2008-07-28, 08:02:04,VALID,1005.08,VALID,0,VALID,81.774,VALID,309.231,VALID,27.486,VALID,98,VALID,1.25859,
2008-07-28, 08:03:04,VALID,1005.07,VALID,0,VALID,81.3315,VALID,322.807,VALID,27.4665,VALID,144,VALID,0.953516,
2008-07-28, 08:04:04,VALID,1005.09,VALID,0,VALID,81.7816,VALID,339.199,VALID,27.4449,VALID,133,VALID,1.06289,
2008-07-28, 08:05:04,VALID,1005.14,VALID,0,VALID,81.629,VALID,292.739,VALID,27.4254,VALID,123,VALID,1.17031,
2008-07-28, 08:06:04,VALID,1005.12,VALID,0,VALID,81.0263,VALID,243.362,VALID,27.369,VALID,125,VALID,0.930469,
2008-07-28, 08:07:04,VALID,1005.14,VALID,0,VALID,80.7593,VALID,197.506,VALID,27.2911,VALID,124,VALID,0.949609,
2008-07-28, 08:08:04,VALID,1005.2,VALID,0,VALID,81.2552,VALID,208.065,VALID,27.2326,VALID,107,VALID,1.27422,
2008-07-28, 08:09:04,VALID,1005.21,VALID,0,VALID,81.7587,VALID,154.565,VALID,27.1547,VALID,105,VALID,0.839453,
2008-07-28, 08:10:04,VALID,1005.26,VALID,0,VALID,81.3315,VALID,72.2042,VALID,27.1157,VALID,100,VALID,1.39141,
2008-07-28, 08:11:04,VALID,1005.26,VALID,0,VALID,82.5292,VALID,55.6113,VALID,27.0377,VALID,122,VALID,0.732813,
2008-07-28, 08:12:04,VALID,1005.29,VALID,0,VALID,82.3156,VALID,47.0635,VALID,26.9988,VALID,86,VALID,0.825781,
2008-07-28, 08:13:04,VALID,1005.31,VALID,0,VALID,83.643,VALID,41.8342,VALID,26.9208,VALID,113,VALID,0.665234,
2008-07-28, 08:14:04,VALID,1005.32,VALID,0,VALID,84.0321,VALID,38.6162,VALID,26.8408,VALID,100,VALID,0.0480469,
2008-07-28, 08:15:04,VALID,1005.35,VALID,0,VALID,83.5439,VALID,36.3032,VALID,26.8234,VALID,80,VALID,0.375391,
2008-07-28, 08:16:04,VALID,1005.35,VALID,0,VALID,83.2921,VALID,35.0965,VALID,26.7434,VALID,89,VALID,0.527344,
2008-07-28, 08:17:04,VALID,1005.4,VALID,0,VALID,84.1008,VALID,34.6942,VALID,26.7085,VALID,89,VALID,0.286328,
2008-07-28, 08:18:04,VALID,1005.45,VALID,0,VALID,84.9552,VALID,34.7948,VALID,26.687,VALID,89,VALID,0.100781,
2008-07-28, 08:19:04,VALID,1005.46,VALID,0,VALID,85.1688,VALID,35.2976,VALID,26.6675,VALID,25,VALID,0.559375,
2008-07-28, 08:20:04,VALID,1005.52,VALID,0,VALID,85.123,VALID,36.6049,VALID,26.5876,VALID,21,VALID,0.721484,
2008-07-28, 08:21:04,VALID,1005.53,VALID,0,VALID,85.3595,VALID,38.7167,VALID,26.5506,VALID,9,VALID,0.726563,
2008-07-28, 08:22:04,VALID,1005.55,VALID,0,VALID,84.8332,VALID,41.3314,VALID,26.5116,VALID,5,VALID,0.396875,
2008-07-28, 08:23:04,VALID,1005.54,VALID,0,VALID,85.3595,VALID,43.7449,VALID,26.5116,VALID,5,VALID,0.269922,
2008-07-28, 08:24:04,VALID,1005.57,VALID,0,VALID,85.4587,VALID,45.9573,VALID,26.4707,VALID,5,VALID,0.01875,
2008-07-28, 08:25:04,VALID,1005.57,VALID,0,VALID,85.1841,VALID,49.0747,VALID,26.4122,VALID,5,VALID,0.223828,
2008-07-28, 08:26:04,VALID,1005.6,VALID,0,VALID,86.3742,VALID,54.4046,VALID,26.4727,VALID,5,VALID,0,
2008-07-28, 08:27:04,VALID,1005.6,VALID,0,VALID,86.8701,VALID,62.5502,VALID,26.4512,VALID,5,VALID,0,
2008-07-28, 08:28:04,VALID,1005.6,VALID,0,VALID,86.4352,VALID,90.6072,VALID,26.4512,VALID,5,VALID,0.0605469,
2008-07-28, 08:29:04,VALID,1005.59,VALID,0,VALID,87.2134,VALID,152.353,VALID,26.4512,VALID,5,VALID,0,
2008-07-28, 08:30:04,VALID,1005.59,VALID,0,VALID,87.8618,VALID,248.29,VALID,26.5096,VALID,5,VALID,0,
2008-07-28, 08:31:04,VALID,1005.58,VALID,0,VALID,86.8548,VALID,310.639,VALID,26.5681,VALID,5,VALID,0.179297,
2008-07-28, 08:32:04,VALID,1005.58,VALID,0,VALID,86.9464,VALID,255.43,VALID,26.685,VALID,5,VALID,0.200391,
2008-07-28, 08:33:04,VALID,1005.59,VALID,0,VALID,87.076,VALID,152.152,VALID,26.8214,VALID,6,VALID,0.206641,
2008-07-28, 08:34:04,VALID,1005.61,VALID,0,VALID,86.542,VALID,149.336,VALID,26.8798,VALID,6,VALID,0.398047,
2008-07-28, 08:35:04,VALID,1005.63,VALID,0,VALID,85.7028,VALID,202.132,VALID,26.9188,VALID,7,VALID,0.307813,
2008-07-28, 08:36:04,VALID,1005.65,VALID,0,VALID,84.9934,VALID,237.63,VALID,26.9772,VALID,16,VALID,0.451953,
2008-07-28, 08:37:04,VALID,1005.64,VALID,0,VALID,85.2833,VALID,166.331,VALID,27.0357,VALID,39,VALID,0.34375,
2008-07-28, 08:38:04,VALID,1005.66,VALID,0,VALID,85.802,VALID,157.683,VALID,27.1136,VALID,18,VALID,0.583984,
2008-07-28, 08:39:04,VALID,1005.64,VALID,0,VALID,85.1307,VALID,241.15,VALID,27.1136,VALID,11,VALID,0.282031,
2008-07-28, 08:40:04,VALID,1005.65,VALID,0,VALID,85.4511,VALID,219.127,VALID,27.1526,VALID,11,VALID,0,
2008-07-28, 08:41:04,VALID,1005.67,VALID,0,VALID,84.1008,VALID,421.359,VALID,27.1721,VALID,11,VALID,0.128906,
2008-07-28, 08:42:04,VALID,1005.69,VALID,0,VALID,84.2228,VALID,460.578,VALID,27.25,VALID,5,VALID,0.439844,
2008-07-28, 08:43:04,VALID,1005.71,VALID,0,VALID,83.2845,VALID,485.216,VALID,27.328,VALID,343,VALID,0.592578,
2008-07-28, 08:44:04,VALID,1005.71,VALID,0,VALID,83.7727,VALID,373.792,VALID,27.4254,VALID,343,VALID,0.571094,
2008-07-28, 08:45:04,VALID,1005.7,VALID,0,VALID,83.8567,VALID,495.574,VALID,27.5618,VALID,42,VALID,0.439844,
2008-07-28, 08:46:04,VALID,1005.7,VALID,0,VALID,83.6354,VALID,483.507,VALID,27.7372,VALID,36,VALID,0.357422,
2008-07-28, 08:47:04,VALID,1005.7,VALID,0,VALID,82.1707,VALID,352.775,VALID,27.9321,VALID,30,VALID,0.344141,
2008-07-28, 08:48:04,VALID,1005.72,VALID,0,VALID,79.4014,VALID,250.201,VALID,28.0902,VALID,356,VALID,0.908594,
2008-07-28, 08:49:04,VALID,1005.75,VALID,0,VALID,79.3556,VALID,303.7,VALID,28.0101,VALID,17,VALID,0.578125,
2008-07-28, 08:50:04,VALID,1005.74,VALID,0,VALID,80.2863,VALID,431.113,VALID,27.9711,VALID,21,VALID,0.417578,
2008-07-28, 08:51:04,VALID,1005.72,VALID,0,VALID,81.7053,VALID,522.927,VALID,28.0296,VALID,1,VALID,0.362891,
2008-07-28, 08:52:04,VALID,1005.74,VALID,0,VALID,81.0569,VALID,591.21,VALID,28.166,VALID,12,VALID,0.496484,
2008-07-28, 08:53:04,VALID,1005.71,VALID,0,VALID,80.4771,VALID,619.87,VALID,28.322,VALID,352,VALID,0.753516,
2008-07-28, 08:54:04,VALID,1005.7,VALID,0,VALID,79.2336,VALID,645.111,VALID,28.4389,VALID,353,VALID,0.757031,
2008-07-28, 08:55:04,VALID,1005.73,VALID,0,VALID,78.669,VALID,646.318,VALID,28.5364,VALID,359,VALID,0.698828,
2008-07-28, 08:56:04,VALID,1005.73,VALID,0,VALID,77.4408,VALID,637.77,VALID,28.6729,VALID,8,VALID,0.988672,
2008-07-28, 08:57:04,VALID,1005.71,VALID,0,VALID,77.3874,VALID,649.435,VALID,28.6902,VALID,32,VALID,0.779688,
2008-07-28, 08:58:04,VALID,1005.73,VALID,0,VALID,76.5024,VALID,656.575,VALID,28.8093,VALID,101,VALID,1.20625,
2008-07-28, 08:59:04,VALID,1005.73,VALID,0,VALID,74.6867,VALID,660.598,VALID,28.7314,VALID,105,VALID,0.860937,
2008-07-28, 09:00:04,VALID,1005.72,VALID,0,VALID,72.1234,VALID,664.52,VALID,28.5971,VALID,131,VALID,0.778906,
2008-07-28, 09:01:04,VALID,1005.71,VALID,0,VALID,74.4426,VALID,667.135,VALID,28.6534,VALID,49,VALID,0.626562,
2008-07-28, 09:02:04,VALID,1005.69,VALID,0,VALID,74.5952,VALID,672.062,VALID,28.792,VALID,46,VALID,0.441797,
2008-07-28, 09:03:04,VALID,1005.72,VALID,0,VALID,74.3663,VALID,678.8,VALID,28.753,VALID,104,VALID,0.516797,
2008-07-28, 09:04:04,VALID,1005.74,VALID,0,VALID,74.4426,VALID,690.264,VALID,28.7898,VALID,120,VALID,0.561328,
2008-07-28, 09:05:04,VALID,1005.71,VALID,0,VALID,73.4432,VALID,697.706,VALID,28.8505,VALID,126,VALID,0.298438,
2008-07-28, 09:06:04,VALID,1005.73,VALID,0,VALID,74.229,VALID,707.058,VALID,28.948,VALID,127,VALID,0.254297,
2008-07-28, 09:07:04,VALID,1005.73,VALID,0,VALID,74.9995,VALID,732.098,VALID,29.026,VALID,181,VALID,0.475391,
2008-07-28, 09:08:04,VALID,1005.76,VALID,0,VALID,74.2595,VALID,537.006,VALID,29.1235,VALID,117,VALID,1.08477,
2008-07-28, 09:09:04,VALID,1005.75,VALID,0,VALID,74.4655,VALID,643.804,VALID,28.8895,VALID,130,VALID,0.904688,
2008-07-28, 09:10:04,VALID,1005.76,VALID,0,VALID,77.2348,VALID,707.058,VALID,28.9653,VALID,136,VALID,0.199609,
2008-07-28, 09:11:04,VALID,1005.73,VALID,0,VALID,76.7313,VALID,686.744,VALID,29.0238,VALID,129,VALID,0.34375,
2008-07-28, 09:12:04,VALID,1005.72,VALID,0,VALID,73.7484,VALID,743.261,VALID,29.1798,VALID,89,VALID,0.159375,
2008-07-28, 09:13:04,VALID,1005.72,VALID,0,VALID,72.7948,VALID,390.184,VALID,29.2773,VALID,122,VALID,1.21328,
2008-07-28, 09:14:04,VALID,1005.73,VALID,0,VALID,73.7789,VALID,408.99,VALID,29.0238,VALID,113,VALID,1.38906,
2008-07-28, 09:15:04,VALID,1005.71,VALID,0,VALID,73.9696,VALID,563.957,VALID,28.792,VALID,101,VALID,1.40547,
2008-07-28, 09:16:04,VALID,1005.69,VALID,0,VALID,77.1432,VALID,798.068,VALID,28.6339,VALID,113,VALID,0.926953,
2008-07-28, 09:17:04,VALID,1005.7,VALID,0,VALID,73.1915,VALID,819.89,VALID,28.714,VALID,132,VALID,0.582812,
2008-07-28, 09:18:04,VALID,1005.65,VALID,0,VALID,72.894,VALID,865.545,VALID,28.8678,VALID,62,VALID,1.20586,
2008-07-28, 09:19:04,VALID,1005.65,VALID,0,VALID,73.2525,VALID,600.562,VALID,29.0433,VALID,17,VALID,0.871875,
2008-07-28, 09:20:04,VALID,1005.61,VALID,0,VALID,74.6028,VALID,288.314,VALID,29.1213,VALID,134,VALID,1.47656,
2008-07-28, 09:21:04,VALID,1005.59,VALID,0,VALID,76.1515,VALID,230.893,VALID,28.9653,VALID,161,VALID,1.39375,
2008-07-28, 09:22:04,VALID,1005.62,VALID,0,VALID,76.0676,VALID,208.165,VALID,28.792,VALID,172,VALID,1.33242,
2008-07-28, 09:23:04,VALID,1005.59,VALID,0,VALID,76.8686,VALID,221.641,VALID,28.5191,VALID,175,VALID,1.57383,
2008-07-28, 09:24:04,VALID,1005.57,VALID,0,VALID,77.7764,VALID,265.285,VALID,28.2635,VALID,180,VALID,1.34883,
2008-07-28, 09:25:04,VALID,1005.57,VALID,0,VALID,77.9443,VALID,295.052,VALID,28.0317,VALID,186,VALID,1.72656,
2008-07-28, 09:26:04,VALID,1005.59,VALID,0,VALID,79.0123,VALID,289.521,VALID,27.8542,VALID,163,VALID,2.14492,
2008-07-28, 09:27:04,VALID,1005.55,VALID,0,VALID,79.8591,VALID,325.522,VALID,27.7394,VALID,174,VALID,1.79336,
2008-07-28, 09:28:04,VALID,1005.58,VALID,0,VALID,81.3315,VALID,380.631,VALID,27.7004,VALID,185,VALID,1.50391,
2008-07-28, 09:29:04,VALID,1005.58,VALID,0,VALID,79.8286,VALID,298.37,VALID,27.6788,VALID,186,VALID,1.64609,
2008-07-28, 09:30:04,VALID,1005.54,VALID,0,VALID,81.9037,VALID,274.738,VALID,27.7004,VALID,200,VALID,1.21016,
2008-07-28, 09:31:04,VALID,1005.54,VALID,0,VALID,81.0034,VALID,268.302,VALID,27.6203,VALID,196,VALID,1.4957,
2008-07-28, 09:32:04,VALID,1005.56,VALID,0,VALID,80.9272,VALID,261.061,VALID,27.5618,VALID,192,VALID,1.30664,
2008-07-28, 09:33:04,VALID,1005.52,VALID,0,VALID,81.3239,VALID,256.737,VALID,27.5229,VALID,203,VALID,1.33672,
2008-07-28, 09:34:04,VALID,1005.54,VALID,0,VALID,81.9037,VALID,250.402,VALID,27.5444,VALID,167,VALID,1.82891,
2008-07-28, 09:35:04,VALID,1005.55,VALID,0,VALID,80.8432,VALID,240.547,VALID,27.5055,VALID,161,VALID,1.28672,
2008-07-28, 09:36:04,VALID,1005.55,VALID,0,VALID,80.355,VALID,240.044,VALID,27.4644,VALID,149,VALID,1.22305,
2008-07-28, 09:37:04,VALID,1005.51,VALID,0,VALID,81.0874,VALID,333.165,VALID,27.486,VALID,162,VALID,1.28242,
2008-07-28, 09:38:04,VALID,1005.48,VALID,0,VALID,80.4999,VALID,894.91,VALID,27.5229,VALID,207,VALID,0.811328,
2008-07-28, 09:39:04,VALID,1005.46,VALID,0,VALID,79.0276,VALID,842.416,VALID,27.6593,VALID,206,VALID,1.40352,
2008-07-28, 09:40:04,VALID,1005.47,VALID,0,VALID,78.5088,VALID,812.649,VALID,27.8737,VALID,233,VALID,1.01328,
2008-07-28, 09:41:04,VALID,1005.47,VALID,0,VALID,77.9443,VALID,789.721,VALID,27.9906,VALID,218,VALID,0.898047,
2008-07-28, 09:42:04,VALID,1005.5,VALID,0,VALID,76.7771,VALID,774.837,VALID,28.0881,VALID,132,VALID,1.57305,
2008-07-28, 09:43:04,VALID,1005.52,VALID,0,VALID,76.388,VALID,763.574,VALID,28.205,VALID,125,VALID,1.74727,
2008-07-28, 09:44:04,VALID,1005.47,VALID,0,VALID,76.6397,VALID,757.842,VALID,28.3025,VALID,123,VALID,1.27617,
2008-07-28, 09:45:04,VALID,1005.49,VALID,0,VALID,75.2055,VALID,779.664,VALID,28.5169,VALID,156,VALID,1.13906,
2008-07-28, 09:46:04,VALID,1005.49,VALID,0,VALID,74.9156,VALID,536.805,VALID,28.6729,VALID,173,VALID,1.11055,
2008-07-28, 09:47:04,VALID,1005.51,VALID,0,VALID,74.9385,VALID,694.89,VALID,28.714,VALID,145,VALID,1.69492,
2008-07-28, 09:48:04,VALID,1005.5,VALID,0,VALID,75.1521,VALID,318.684,VALID,28.7119,VALID,153,VALID,1.97695,
2008-07-28, 09:49:04,VALID,1005.5,VALID,0,VALID,74.9995,VALID,773.128,VALID,28.5754,VALID,142,VALID,1.79023,
2008-07-28, 09:50:04,VALID,1005.52,VALID,0,VALID,74.9919,VALID,221.44,VALID,28.5559,VALID,143,VALID,2,
2008-07-28, 09:51:04,VALID,1005.52,VALID,0,VALID,76.2201,VALID,157.482,VALID,28.5559,VALID,153,VALID,1.66562,
2008-07-28, 09:52:04,VALID,1005.49,VALID,0,VALID,75.5259,VALID,139.883,VALID,28.361,VALID,172,VALID,2.46367,
2008-07-28, 09:53:04,VALID,1005.46,VALID,0,VALID,76.2583,VALID,157.582,VALID,28.1271,VALID,164,VALID,1.66133,
2008-07-28, 09:54:04,VALID,1005.39,VALID,0,VALID,76.3193,VALID,173.873,VALID,28.0686,VALID,183,VALID,1.13789,
2008-07-28, 09:55:04,VALID,1005.38,VALID,0,VALID,77.1509,VALID,207.461,VALID,27.9906,VALID,152,VALID,1.80977,
2008-07-28, 09:56:04,VALID,1005.33,VALID,0,VALID,77.4865,VALID,212.49,VALID,27.9127,VALID,191,VALID,1.25078,
2008-07-28, 09:57:04,VALID,1005.31,VALID,0,VALID,77.8375,VALID,171.762,VALID,27.8932,VALID,201,VALID,2.42812,
2008-07-28, 09:58:04,VALID,1005.32,VALID,0,VALID,78.6919,VALID,402.453,VALID,27.8737,VALID,181,VALID,1.03242,
2008-07-28, 09:59:04,VALID,1005.32,VALID,0,VALID,78.6919,VALID,832.259,VALID,27.9321,VALID,185,VALID,1.55273,
2008-07-28, 10:00:04,VALID,1005.27,VALID,0,VALID,77.5552,VALID,156.778,VALID,28.0296,VALID,150,VALID,1.39492,
2008-07-28, 10:01:04,VALID,1005.26,VALID,0,VALID,76.716,VALID,141.19,VALID,28.1076,VALID,196,VALID,1.33203,
2008-07-28, 10:02:04,VALID,1005.29,VALID,0,VALID,75.9302,VALID,139.079,VALID,28.0686,VALID,199,VALID,1.51602,
2008-07-28, 10:03:04,VALID,1005.26,VALID,0,VALID,75.4878,VALID,141.693,VALID,28.0101,VALID,203,VALID,1.30078,
2008-07-28, 10:04:04,VALID,1005.28,VALID,0,VALID,77.7001,VALID,137.771,VALID,28.0101,VALID,184,VALID,0.954297,
2008-07-28, 10:05:04,VALID,1005.28,VALID,0,VALID,73.6416,VALID,134.654,VALID,27.8737,VALID,173,VALID,2.08281,
2008-07-28, 10:06:04,VALID,1005.22,VALID,0,VALID,75.8082,VALID,139.28,VALID,27.8173,VALID,155,VALID,0.993359,
2008-07-28, 10:07:04,VALID,1005.26,VALID,0,VALID,78.2189,VALID,144.207,VALID,27.7178,VALID,174,VALID,0.967969,
2008-07-28, 10:08:04,VALID,1005.25,VALID,0,VALID,77.4865,VALID,156.476,VALID,27.7394,VALID,180,VALID,1.67266,
2008-07-28, 10:09:04,VALID,1005.24,VALID,0,VALID,77.9977,VALID,191.975,VALID,27.6983,VALID,189,VALID,1.34258,
2008-07-28, 10:10:04,VALID,1005.23,VALID,0,VALID,77.662,VALID,828.337,VALID,27.7178,VALID,185,VALID,1.33945,
2008-07-28, 10:11:04,VALID,1005.22,VALID,0,VALID,75.2284,VALID,831.756,VALID,27.8932,VALID,187,VALID,1.08398,
2008-07-28, 10:12:04,VALID,1005.21,VALID,0,VALID,77.7078,VALID,293.845,VALID,28.1855,VALID,175,VALID,1.68047,
2008-07-28, 10:13:04,VALID,1005.21,VALID,0,VALID,75.9837,VALID,833.667,VALID,28.361,VALID,185,VALID,0.796875,
2008-07-28, 10:14:04,VALID,1005.17,VALID,0,VALID,74.0917,VALID,834.572,VALID,28.4173,VALID,153,VALID,1.225,
2008-07-28, 10:15:04,VALID,1005.17,VALID,0,VALID,75.0224,VALID,841.31,VALID,28.4779,VALID,135,VALID,1.74922,
2008-07-28, 10:16:04,VALID,1005.14,VALID,0,VALID,72.7109,VALID,842.818,VALID,28.5364,VALID,99,VALID,0.861328,
2008-07-28, 10:17:04,VALID,1005.11,VALID,0,VALID,76.8762,VALID,817.074,VALID,28.7509,VALID,84,VALID,0.846484,
2008-07-28, 10:18:04,VALID,1005.11,VALID,0,VALID,74.29,VALID,852.17,VALID,28.9263,VALID,165,VALID,2.30273,
2008-07-28, 10:19:04,VALID,1005.11,VALID,0,VALID,75.1597,VALID,854.483,VALID,29.0065,VALID,161,VALID,2.31875,
2008-07-28, 10:20:04,VALID,1005.11,VALID,0,VALID,75.3657,VALID,599.255,VALID,28.9631,VALID,154,VALID,1.81445,
2008-07-28, 10:21:04,VALID,1005.11,VALID,0,VALID,74.0841,VALID,879.423,VALID,29.0823,VALID,181,VALID,1.26445,
2008-07-28, 10:22:04,VALID,1005.11,VALID,0,VALID,72.9321,VALID,889.58,VALID,29.0628,VALID,184,VALID,2.73047,
2008-07-28, 10:23:04,VALID,1005.08,VALID,0,VALID,73.4966,VALID,342.417,VALID,28.987,VALID,207,VALID,1.21836,